Home   Weather   Edmonton   Past weeks

Flag for Canada Past Weather in Edmonton, Alberta, Canada — Yesterday and Last 2 Weeks

Now
43 °F

Quite cool.


Feels Like: 39 °F
Forecast: 35 / 42 °F
Wind: 6 mph from South

Location: Edmonton Municipal

Current Time: Jan 17, 2017 at 4:25:53 pm

Latest Report: Jan 17, 2017 at 3:00 pm


Visibility: N/A

Pressure: 29.38 "Hg (26.99 "Hg at 692m altitude)

Humidity: 64%

Dew Point: 31 °F

Location of EdmontonLocation

Past Weather in Edmonton — Graph

°F

Edmonton Temperature Yesterday

Maximum temperature yesterday: 39 °F (at 11:00 pm)
Minimum temperature yesterday: 22 °F (at 3:00 am)
Average temperature yesterday: 29 °F

High & Low Weather Summary for the Past Weeks

 TemperatureHumidityPressure
High45 °F (Jan 17, 2:00 pm)100% (Jan 4, 6:00 pm)30.62 "Hg (Jan 4, 6:00 pm)
Low-14 °F (Jan 10, 11:00 pm)43% (Jan 15, 2:00 pm)29.38 "Hg (Jan 17, 3:00 pm)
Average10 °F78%30.13 "Hg
* Reported Jan 2 3:00 pm — Jan 17 3:00 pm, Edmonton, Weather by CustomWeather, © 2017

Note: Actual official high and low records may vary slightly from our data, if they occured in-between our weather recording intervals... More about our weather records

Advertising

Edmonton Weather History for the Previous 24 Hours

Scroll right to see more
 ConditionsComfort  
Time TempWeatherWind HumidityBarometerVisibility
3:00 pm
Tue, Jan 17
43 °FQuite cool.6 mph64%29.38 "HgN/A
2:00 pm45 °FCool.1 mph59%29.39 "HgN/A
1:00 pm43 °FQuite cool.3 mph67%29.41 "HgN/A
12:00 pm42 °FQuite cool.3 mph69%29.39 "HgN/A
11:00 am39 °FChilly.2 mph70%29.40 "HgN/A
10:00 am39 °FChilly.3 mph71%29.41 "HgN/A
9:00 am32 °FChilly.2 mph89%29.43 "HgN/A
8:00 am31 °FChilly.2 mph83%29.44 "HgN/A
7:00 am35 °FChilly.5 mph79%29.43 "HgN/A
6:00 am38 °FChilly.7 mph76%29.42 "HgN/A
5:00 am38 °FChilly.5 mph74%29.41 "HgN/A
4:00 am36 °FChilly.5 mph80%29.41 "HgN/A
3:00 am39 °FChilly.5 mph73%29.40 "HgN/A
2:00 am36 °FChilly.5 mph87%29.40 "HgN/A
1:00 am39 °FChilly.5 mph71%29.42 "HgN/A
12:00 am38 °FChilly.3 mph71%29.43 "HgN/A
11:00 pm
Mon, Jan 16
39 °FChilly.9 mph67%29.43 "HgN/A
10:00 pm38 °FChilly.6 mph66%29.45 "HgN/A
9:00 pm37 °FChilly.8 mph66%29.50 "HgN/A
8:00 pm35 °FChilly.7 mph67%29.55 "HgN/A
7:00 pm35 °FChilly.8 mph63%29.61 "HgN/A
6:00 pm32 °FChilly.7 mph65%29.65 "HgN/A
5:00 pm34 °FChilly.6 mph61%29.69 "HgN/A
4:00 pm33 °FChilly.8 mph64%29.72 "HgN/A
Weather by CustomWeather, © 2017

See weather overviewHow to use our weather pages